EOS-6 (OCEANSAT-3)

Last updated on Sat Dec 13 2025 00:02:43 GMT+0000 (Coordinated Universal Time)

1 54361U 22158A 25346.32184763 .00000646 00000+0 18947-3 0 9998 2 54361 98.3549 82.0480 0001539 140.3654 219.7651 14.47032555160815
UTC large
Height (km)
Speed (km/s)
/
Latitude / Longitude
Inclination (degrees)
Orbital Period (minutes)
Azimuth
Elevation
Range (km)
Doppler Factor

Next 0 passes for location: London (51.5072 / 0.1276)

Sorry there are no passes over London.